Location: Drignac
(45.1667°N, 2.0333°E)
Time: 17:38:13
(UTC+00:00)

Cosmos 2333 Rocket - Pass Details

Date: 29 March 2020
Orbit: 841 x 861 km, 70.8° (Epoch: 01 June)

Event Time Altitude Azimuth Distance (km) Brightness Sun altitude
Rises 18:43:10 0° 230° (SW) 3,401 6.0 -5.5°
Reaches altitude 10° 18:45:48 10° 238° (WSW) 2,466 5.4 -5.9°
Maximum altitude 18:51:01 37° 305° (NW) 1,284 3.9 -6.8°
Drops below altitude 10° 18:56:16 10° 13° (NNE) 2,470 4.7 -7.7°
Sets 18:58:54 0° 22° (NNE) 3,407 5.3 -8.2°
